Hourly Data Report for October 16, 2016

All times are specified in Local Standard Time (LST). Add 1 hour to adjust for Daylight Saving Time where and when it is observed.

BATHURST A
NEW BRUNSWICK

47°37'47.000" N
65°44'20.000" W
58.80 m
8100505
71574
ZBF

Download Data

Hourly Data (October 2016)
Hourly Data Report for October 16, 2016
Temp Definition
°C
Dew Point Temp Definition
°C
Rel Hum Definition
%
Wind Dir Definition
10's deg

Wind Spd Definition
km/h
Visibility Definition
km
Stn Press Definition
kPa
Hmdx Definition


Wind Chill Definition


Weather Definition


TIME
00:00 Legend Double Dagger 4.8 -0.8 67 19 13 24.1 101.67     LegendNANA
01:00 Legend Double Dagger 4.2 -1.4 67 19 9 24.1 101.59     LegendNANA
02:00 Legend Double Dagger 3.4 -1.8 69 17 9 24.1 101.47     Cloudy
03:00 Legend Double Dagger 2.5 -2.0 72 18 6 24.1 101.42     LegendNANA
04:00 Legend Double Dagger 1.2 -2.0 79 20 3 24.1 101.31     LegendNANA
05:00 Legend Double Dagger 1.5 -2.3 76 16 4 24.1 101.25     Cloudy
06:00 Legend Double Dagger 2.6 -1.9 72 19 12 24.1 101.10     LegendNANA
07:00 Legend Double Dagger 2.2 -2.0 74 19 8 24.1 101.03     LegendNANA
08:00 Legend Double Dagger 3.6 -1.4 70 19 9 24.1 100.93     Cloudy
09:00 Legend Double Dagger 7.3 -0.6 57 19 21 24.1 100.80     LegendNANA
10:00 Legend Double Dagger 10.6 0.7 50 21 18 24.1 100.73     LegendNANA
11:00 Legend Double Dagger 12.0 1.7 49 17 16 24.1 100.60     Mostly Cloudy
12:00 Legend Double Dagger 13.4 2.7 48 20 22 24.1 100.45     LegendNANA
13:00 Legend Double Dagger 12.6 3.6 54 19 16 24.1 100.36     LegendNANA
14:00 Legend Double Dagger 13.0 4.5 56 20 17 24.1 100.22     Mostly Cloudy
15:00 Legend Double Dagger 13.8 5.2 56 20 29 24.1 100.14     LegendNANA
16:00 Legend Double Dagger 14.3 6.0 57 19 23 24.1 100.08     LegendNANA
17:00 Legend Double Dagger 13.9 6.6 61 20 11 24.1 100.08     Mostly Cloudy
18:00 Legend Double Dagger 13.2 7.5 68 18 8 19.3 100.07     Rain Showers
19:00 Legend Double Dagger 11.8 9.6 86 20 8 8.1 100.02     Rain Showers,Fog
20:00 Legend Double Dagger 11.0 10.1 94 16 5 8.1 99.95     Rain Showers,Fog
21:00 Legend Double Dagger 10.8 10.2 96 0 1 8.1 99.92     Rain Showers,Fog
22:00 Legend Double Dagger 10.8 10.4 97 2 3 6.4 99.88     Fog
23:00 Legend Double Dagger 10.2 10.1 99 30 3 6.4 99.91     Rain Showers,Fog

Notes on Data Quality.

Legend

  • E = Estimated
  • M = Missing
  • NA = Not Available
  • ‡ = Partner data that is not subject to review by the National Climate Archives
Date modified: